Location: Biharia
(46.4333°N, 22.8000°E)
Time: 09:44:19
(UTC+00:00)

Cosmos 1758 - Pass Details

Date: 16 October 2021
Orbit: 539 x 560 km, 82.5° (Epoch: 07 December)

Event Time Altitude Azimuth Distance (km) Brightness Sun altitude
Rises 16:24:42 0° 185° (S) 2,705 7.0 -8.4°
Reaches altitude 10° 16:26:51 10° 184° (S) 1,813 6.1 -8.8°
Maximum altitude 16:30:50 81° 98° (E) 557 3.2 -9.5°
Drops below altitude 10° 16:34:50 10° 11° (N) 1,818 5.8 -10.1°
Sets 16:37:00 0° 10° (N) 2,714 6.7 -10.5°
